Regional Weather Roundup
Issued by NWS

Home | Current Version | Previous Version | Text Only | Print | Product List | Glossary Off
Versions: 1 2 3 4 5 6 7 8 9 10 11 12 13 14 15 16 17 18 19 20 21 22 23 24 25 26 27 28 29 30 31 32 33 34 35 36 37 38 39 40 41 42 43 44 45 46 47 48 49 50

000
ASUS43 KLMK 212010
RWRKY
KENTUCKY REGIONAL WEATHER ROUNDUP
NATIONAL WEATHER SERVICE LOUISVILLE KY
400 PM EDT SUN MAY 21 2017

NOTE "FAIR" INDICATES FEW OR NO CLOUDS BELOW 12,000 FEET
WITH NO SIGNIFICANT WEATHER AND/OR OBSTRUCTIONS TO VISIBILITY.

KYZ001>023-026-027-061>063-070>075-212100-
WESTERN AND SOUTH CENTRAL KENTUCKY

CITY           SKY/WX    TMP DP  RH WIND       PRES   REMARKS
PADUCAH        SUNNY     77  51  40 W13       30.04F
HENDERSON      SUNNY     76  54  46 SW3       30.03F
OWENSBORO      MOSUNNY   75  63  66 W9        30.03F
HOPKINSVILLE   MOSUNNY   78  67  67 W16G23    30.03S
BOWLING GREEN  MOSUNNY   82  67  60 SW10G20   30.01F
GLASGOW        MOSUNNY   81  67  63 S10       30.02F
$$

KYZ024-025-028>034-038-045-046-053-212100-
NORTH CENTRAL KENTUCKY

CITY           SKY/WX    TMP DP  RH WIND       PRES   REMARKS
LOUISVILLE/SDF PTSUNNY   80  68  66 SW12      29.99F
LOUISVILLE/LOU CLOUDY    80  69  69 SW8       29.99F
FORT KNOX      MOSUNNY   78  69  73 W8        29.99F
$$

KYZ035>037-039>044-047>052-055>060-089>105-212100-
NORTHEAST KENTUCKY

CITY           SKY/WX    TMP DP  RH WIND       PRES   REMARKS
LEXINGTON      PTSUNNY   77  68  73 SW13      30.04F
COVINGTON      PTSUNNY   74  67  78 S8        29.99F
FRANKFORT      LGT RAIN  76  65  68 SW7       30.00F
$$

KYZ054-064>069-076>088-106>120-212100-
SOUTHEAST KENTUCKY

CITY           SKY/WX    TMP DP  RH WIND       PRES   REMARKS
JACKSON        CLOUDY    70  65  84 VRB3      30.10F
LONDON         PTSUNNY   74  62  66 S14       30.08F
SOMERSET       CLOUDY    73  64  73 SW6       30.07F
MIDDLESBORO    CLOUDY    70  65  85 CALM      30.12S
MONTICELLO     NOT AVBL
$$





USA.gov is the U.S. government's official web portal to all federal, state and local government web resources and services.